User: anonymous
Location: Caltech
(34.1382°N, 118.1253°W)
Time: 19:14:08
(UTC-07:00)
Language:

Cosmos 1508 Rocket - Orbit

View from above orbital plane
View from above orbital plane
View from above satellite
View from above satellite

Ground track
Ground track

The orbit data is extracted from the following two-line orbital elements,

1 14484U 83111B   14242.79349063  .00041863  00000-0  59460-3 0  6142
2 14484 082.8366 256.8207 0201525 006.9980 048.4177 15.36051286583995
Epoch (UTC): 30 August 2014 19:02:37
Eccentricity: 0.0201525
inclination: 82.8366°
perigee height: 320 km
apogee height: 595 km
right ascension of ascending node: 256.8207°
argument of perigee: 6.9980°
revolutions per day: 15.36051286
mean anomaly at epoch: 48.4177°
orbit number at epoch: 58399

The dashed part of the orbit path shows where the satellite is in the earth's shadow,  

DLR